OE6PLD-13 Weather Reports


Display with metric or nautical units.
time (UTC)temp
F
wind
direction
speed
MPH
gust
MPH
rain 1hr
in
rain 24hr
in
rain mn
in
humidity
%
barometer
mb
20260506085913 73 266 3.0 12.0 0.03 0.03 0.00 48 1013.6
20260506085610 72 266 3.0 12.0 0.03 0.03 0.00 51 1013.7
20260506085307 72 266 3.0 10.0 0.03 0.03 0.00 51 1013.9
20260506085003 72 266 5.0 8.0 0.03 0.03 0.00 51 1013.8
20260506084700 73 266 1.0 6.0 0.03 0.03 0.00 49 1013.7
20260506084357 72 266 0.0 4.0 0.03 0.03 0.00 52 1013.7
20260506084053 72 266 0.0 4.0 0.03 0.03 0.00 52 1013.6
20260506083750 72 266 0.0 4.0 0.03 0.03 0.00 51 1013.6
20260506083447 71 266 0.0 3.0 0.03 0.03 0.00 53 1013.5
20260506083143 70 266 0.0 8.0 0.03 0.03 0.00 54 1013.6
20260506082840 71 266 5.0 8.0 0.03 0.03 0.00 53 1013.7
20260506082537 71 266 1.0 3.0 0.03 0.03 0.00 53 1013.8
20260506082233 70 266 1.0 3.0 0.03 0.03 0.00 55 1013.9
20260506081930 70 266 0.0 8.0 0.03 0.03 0.00 56 1013.7
20260506081626 69 266 5.0 8.0 0.03 0.03 0.00 57 1013.8
20260506081323 68 266 3.0 8.0 0.03 0.03 0.00 59 1014.0
20260506081020 68 266 4.0 8.0 0.03 0.03 0.00 60 1013.9
20260506080716 69 266 3.0 6.0 0.03 0.03 0.00 58 1014.0
20260506080412 69 266 0.0 5.0 0.03 0.03 0.00 60 1014.1
20260506080108 68 266 2.0 5.0 0.03 0.03 0.00 59 1014.0
20260506073338 68 266 0.0 4.0 0.03 0.03 0.00 60 1013.9
20260506073035 67 266 1.0 4.0 0.03 0.03 0.00 60 1013.7
20260506072732 67 266 1.0 4.0 0.03 0.03 0.00 62 1013.8
20260506072428 67 266 2.0 3.0 0.03 0.03 0.00 61 1013.9
20260506072125 67 266 0.0 4.0 0.03 0.03 0.00 62 1013.9
20260506071821 67 266 0.0 5.0 0.03 0.03 0.00 61 1014.1
20260506071518 66 266 1.0 6.0 0.03 0.03 0.00 62 1014.1
20260506071215 67 266 5.0 6.0 0.03 0.03 0.00 61 1014.0
20260506070911 67 266 1.0 4.0 0.03 0.03 0.00 61 1013.9
20260506070608 67 266 0.0 3.0 0.03 0.03 0.00 63 1013.9
20260506070305 66 266 1.0 4.0 0.03 0.03 0.00 62 1013.8
20260506062321 62 266 0.0 0.0 0.03 0.03 0.00 69 1013.9
20260506062018 61 266 0.0 0.0 0.03 0.03 0.00 70 1014.1
20260506061714 60 266 0.0 2.0 0.03 0.03 0.00 73 1014.2
20260506061411 60 266 1.0 2.0 0.03 0.03 0.00 73 1014.0
20260506061107 60 266 0.0 1.0 0.03 0.03 0.00 73 1014.2
20260506060804 60 266 0.0 0.0 0.03 0.03 0.00 73 1014.1
20260506060501 60 266 0.0 1.0 0.03 0.03 0.00 73 1014.0
20260506060157 59 266 0.0 1.0 0.03 0.03 0.00 74 1014.1
20260506051304 51 266 1.0 3.0 0.03 0.03 0.00 87 1014.1
20260506051000 51 266 2.0 3.0 0.03 0.03 0.00 87 1014.3
20260506050657 50 266 2.0 3.0 0.03 0.03 0.00 88 1014.3
20260506050354 50 266 1.0 2.0 0.03 0.03 0.00 89 1014.4
20260506044837 49 266 2.0 3.0 0.03 0.03 0.00 89 1014.1
20260506044533 49 266 3.0 3.0 0.03 0.03 0.00 90 1014.4
20260506044230 49 266 2.0 3.0 0.03 0.03 0.00 90 1014.2
20260506043927 49 266 2.0 3.0 0.03 0.03 0.00 90 1014.3
20260506043623 48 266 2.0 2.0 0.03 0.03 0.00 91 1014.2
20260506043320 48 266 1.0 2.0 0.03 0.03 0.00 91 1014.4
20260506043017 48 266 0.0 0.0 0.03 0.03 0.00 91 1014.3
20260506042713 48 266 0.0 0.0 0.03 0.03 0.00 92 1013.9
20260506042410 47 266 0.0 0.0 0.03 0.03 0.00 92 1014.1
20260506042107 47 266 0.0 0.0 0.03 0.03 0.00 92 1014.1
20260506041803 47 266 0.0 0.0 0.03 0.03 0.00 93 1014.1
20260506041500 47 266 0.0 0.0 0.03 0.03 0.00 93 1014.1
20260506041157 47 266 0.0 0.0 0.03 0.03 0.00 93 1014.2
20260506040853 47 266 0.0 0.0 0.03 0.03 0.00 93 1014.1
20260506040550 46 266 0.0 0.0 0.03 0.03 0.00 93 1014.0
20260506040246 46 266 0.0 0.0 0.03 0.03 0.00 92 1014.1
20260506035943 47 266 0.0 0.0 0.03 0.03 0.00 93 1014.1
20260506035640 47 266 0.0 0.0 0.03 0.03 0.00 93 1014.1
20260506035336 47 266 0.0 0.0 0.03 0.03 0.00 93 1014.1
20260506035033 47 266 0.0 0.0 0.03 0.03 0.00 93 1014.0
20260506034730 47 266 0.0 0.0 0.03 0.03 0.00 93 1014.1
20260506034426 47 266 0.0 0.0 0.03 0.03 0.00 93 1014.1
20260506034123 47 266 0.0 0.0 0.03 0.03 0.00 93 1014.1
20260506033820 47 266 0.0 0.0 0.03 0.03 0.00 92 1014.2
20260506033516 47 266 0.0 0.0 0.03 0.03 0.00 92 1014.0
20260506033213 47 266 0.0 0.0 0.03 0.03 0.00 92 1013.9
20260506032910 47 266 0.0 0.0 0.03 0.03 0.00 92 1013.9
20260506032606 47 266 0.0 0.0 0.03 0.03 0.00 92 1014.0
20260506032305 47 266 0.0 0.0 0.03 0.03 0.00 92 1014.0
20260506032000 47 266 0.0 0.0 0.03 0.03 0.00 92 1014.0
20260506031656 47 266 0.0 0.0 0.03 0.03 0.00 93 1013.9
20260506031353 47 266 0.0 0.0 0.03 0.03 0.00 92 1014.0
20260506031049 47 266 0.0 0.0 0.03 0.03 0.00 92 1013.9
20260506030746 47 266 0.0 0.0 0.03 0.03 0.00 92 1014.1
20260506030443 47 266 0.0 0.0 0.03 0.03 0.00 93 1014.0
20260506030139 47 266 0.0 0.0 0.03 0.03 0.00 93 1013.8
20260506025836 47 266 0.0 0.0 0.03 0.03 0.00 93 1013.9
20260506025533 47 266 0.0 0.0 0.03 0.03 0.00 93 1013.7
20260506025229 47 266 0.0 0.0 0.03 0.03 0.00 92 1014.0
20260506024926 47 266 0.0 0.0 0.03 0.03 0.00 93 1013.9
20260506024623 47 266 0.0 0.0 0.03 0.03 0.00 92 1013.8
20260506024319 47 266 0.0 0.0 0.03 0.03 0.00 92 1014.0
20260506024016 47 266 0.0 0.0 0.03 0.03 0.00 92 1013.9
20260506023712 47 266 0.0 0.0 0.03 0.03 0.00 92 1013.7
20260506023409 47 266 0.0 0.0 0.03 0.03 0.00 92 1013.6
20260506023106 47 266 0.0 0.0 0.03 0.03 0.00 92 1013.7
20260506022802 47 266 0.0 0.0 0.03 0.03 0.00 92 1013.8
20260506022459 48 266 0.0 0.0 0.03 0.03 0.00 92 1013.7
20260506022156 48 266 0.0 0.0 0.03 0.03 0.00 92 1013.7
20260506021852 48 266 0.0 2.0 0.03 0.03 0.00 92 1013.4
20260506021549 48 266 1.0 2.0 0.03 0.03 0.00 92 1013.6
20260506021246 48 266 1.0 2.0 0.03 0.03 0.00 92 1013.5
20260506020942 48 266 0.0 0.0 0.03 0.03 0.00 92 1013.4
20260506020639 48 266 0.0 0.0 0.03 0.03 0.00 92 1013.7
20260506020335 47 266 0.0 0.0 0.03 0.03 0.00 93 1013.5
20260506020032 47 266 0.0 1.0 0.03 0.03 0.00 92 1013.5
20260506015729 48 266 0.0 0.0 0.03 0.03 0.00 92 1013.4
20260506015425 47 266 0.0 0.0 0.03 0.03 0.00 92 1013.5
20260506015122 47 266 0.0 0.0 0.03 0.03 0.00 91 1013.4
20260506014819 48 266 1.0 2.0 0.03 0.03 0.00 91 1013.2
20260506014515 48 266 1.0 2.0 0.03 0.03 0.00 92 1013.3
20260506014212 48 266 0.0 2.0 0.03 0.03 0.00 92 1013.5
20260506013909 47 266 1.0 2.0 0.03 0.03 0.00 92 1013.4
20260506013605 48 266 0.0 0.0 0.03 0.03 0.00 91 1013.4
20260506013302 48 266 0.0 0.0 0.03 0.03 0.00 91 1013.4
20260506012958 48 266 0.0 2.0 0.03 0.03 0.00 91 1013.3
20260506012655 48 266 1.0 2.0 0.03 0.03 0.00 91 1013.3
20260506012352 48 266 1.0 2.0 0.03 0.03 0.00 91 1013.1
20260506012049 48 266 2.0 2.0 0.03 0.03 0.00 91 1013.3
20260506011745 48 266 0.0 0.0 0.03 0.03 0.00 91 1013.2
20260506011442 48 266 0.0 0.0 0.03 0.03 0.00 91 1013.4
20260506011138 48 266 0.0 0.0 0.03 0.03 0.00 90 1013.2
20260506010835 48 266 0.0 0.0 0.03 0.03 0.00 90 1013.3
20260506010532 48 266 0.0 1.0 0.03 0.03 0.00 90 1013.0
20260506010228 49 266 0.0 2.0 0.03 0.03 0.00 89 1013.1
20260506005925 49 266 1.0 3.0 0.03 0.03 0.00 90 1013.1
20260506005622 49 266 0.0 0.0 0.03 0.03 0.00 90 1013.1
20260506005318 49 266 0.0 0.0 0.03 0.03 0.00 90 1013.2
20260506005015 49 266 0.0 0.0 0.03 0.03 0.00 90 1013.2
20260506004712 49 266 0.0 0.0 0.03 0.03 0.00 90 1013.0
20260506004408 49 266 0.0 0.0 0.03 0.03 0.00 89 1013.0
20260506004105 49 266 0.0 1.0 0.03 0.03 0.00 89 1013.4
20260506003802 49 266 0.0 2.0 0.03 0.03 0.00 89 1013.2
20260506003458 50 265 1.0 3.0 0.03 0.03 0.00 88 1013.2
20260506003155 50 261 2.0 3.0 0.03 0.03 0.00 88 1012.9
20260506002851 50 258 2.0 3.0 0.03 0.03 0.00 88 1013.1
20260506002548 50 253 1.0 2.0 0.03 0.03 0.00 88 1013.0
20260506002245 50 247 1.0 2.0 0.03 0.03 0.00 88 1013.0
20260506001941 50 240 2.0 2.0 0.03 0.03 0.00 87 1013.1
20260506001638 50 232 2.0 3.0 0.03 0.03 0.00 87 1013.0
20260506001335 51 224 1.0 3.0 0.03 0.03 0.00 87 1013.0
20260506001031 51 214 2.0 3.0 0.03 0.03 0.00 88 1013.0
20260506000728 51 195 0.0 0.0 0.03 0.03 0.00 87 1013.0
20260506000425 51 168 0.0 0.0 0.03 0.03 0.00 87 1013.2
20260506000121 51 147 0.0 0.0 0.03 0.03 0.00 87 1013.2
20260505235818 51 135 0.0 1.0 0.03 0.03 0.00 86 1013.0
20260505235515 52 125 0.0 1.0 0.03 0.03 0.00 86 1013.1
20260505235211 52 116 0.0 0.0 0.03 0.03 0.00 86 1013.2
20260505234908 52 114 0.0 2.0 0.03 0.03 0.00 85 1013.1
20260505234605 53 113 1.0 2.0 0.03 0.03 0.00 85 1012.9
20260505234301 53 110 0.0 2.0 0.03 0.03 0.00 85 1013.1
20260505233958 53 109 0.0 2.0 0.03 0.03 0.00 85 1012.9
20260505233654 53 107 1.0 1.0 0.03 0.03 0.00 85 1013.2
20260505233351 53 106 0.0 2.0 0.03 0.03 0.00 85 1013.0
20260505233048 53 102 0.0 0.0 0.03 0.03 0.00 85 1013.1
20260505232744 53 102 0.0 0.0 0.03 0.03 0.00 85 1013.0
20260505232441 53 101 0.0 0.0 0.03 0.03 0.00 85 1013.3
20260505232138 53 99 0.0 0.0 0.03 0.03 0.00 85 1013.2
20260505231834 53 97 0.0 0.0 0.03 0.03 0.00 84 1013.2
20260505231531 53 97 0.0 0.0 0.03 0.03 0.00 83 1013.1
20260505231228 53 98 0.0 1.0 0.03 0.03 0.00 83 1013.1
20260505230924 54 99 0.0 1.0 0.03 0.03 0.00 83 1013.0
20260505230621 54 100 0.0 0.0 0.03 0.03 0.00 82 1013.0
20260505230318 54 102 0.0 2.0 0.03 0.03 0.00 82 1013.1
20260505230014 55 104 1.0 4.0 0.03 0.03 0.00 80 1013.0
20260505225711 55 103 3.0 4.0 0.03 0.03 0.00 79 1013.2
20260505225407 56 102 1.0 4.0 0.03 0.03 0.00 78 1013.2
20260505225104 57 102 1.0 3.0 0.03 0.03 0.00 78 1013.2
20260505224801 58 101 0.0 2.0 0.03 0.03 0.00 76 1013.0
20260505224457 58 102 0.0 0.0 0.03 0.03 0.00 75 1013.1
20260505224154 58 105 0.0 2.0 0.03 0.03 0.00 75 1013.1
20260505223850 59 109 0.0 3.0 0.03 0.03 0.00 75 1012.9
20260505223547 59 112 1.0 4.0 0.03 0.03 0.00 75 1012.9
20260505223244 59 116 1.0 6.0 0.03 0.00 0.00 74 1012.8
20260505222940 59 113 0.0 5.0 0.03 0.00 0.00 74 1012.6
20260505222637 59 115 2.0 5.0 0.03 0.00 0.00 74 1012.9
20260505222334 59 112 2.0 8.0 0.03 0.00 0.00 74 1012.9
20260505222030 59 108 2.0 8.0 0.03 0.00 0.00 74 1012.8
20260505221727 59 102 1.0 6.0 0.03 0.00 0.00 74 1012.9
20260505221423 59 102 2.0 6.0 0.03 0.00 0.00 74 1012.9
20260505221120 59 99 0.0 5.0 0.03 0.00 0.00 74 1013.0
20260505220817 59 98 0.0 4.0 0.03 0.00 0.00 74 1012.9
20260505220513 59 98 1.0 5.0 0.03 0.00 0.00 74 1012.9
20260505220210 58 95 0.0 4.0 0.03 0.00 0.00 75 1012.8
20260505215907 58 96 3.0 4.0 0.03 0.00 0.00 75 1012.9
20260505215603 58 94 0.0 2.0 0.03 0.00 0.00 75 1013.0
20260505215300 58 95 0.0 2.0 0.03 0.00 0.00 75 1012.9
20260505214957 59 97 0.0 2.0 0.03 0.00 0.00 74 1013.1
20260505214653 58 98 0.0 2.0 0.03 0.00 0.00 74 1013.1
20260505214350 59 100 0.0 6.0 0.03 0.00 0.00 74 1013.1
20260505214047 58 99 4.0 6.0 0.03 0.00 0.00 75 1012.9
20260505213743 58 98 0.0 3.0 0.03 0.00 0.00 75 1012.7
20260505213440 58 100 0.0 8.0 0.03 0.00 0.00 74 1013.0
20260505213137 58 95 1.0 3.0 0.03 0.00 0.00 76 1012.9
20260505212833 57 95 2.0 3.0 0.03 0.00 0.00 76 1013.0
20260505212530 57 94 0.0 0.0 0.03 0.00 0.00 76 1013.0
20260505212226 57 95 0.0 1.0 0.03 0.00 0.00 75 1012.9
20260505211923 58 97 0.0 2.0 0.03 0.00 0.00 74 1013.0
20260505211620 58 100 0.0 2.0 0.03 0.00 0.00 74 1013.0
20260505211316 59 103 0.0 2.0 0.03 0.00 0.00 73 1012.9
20260505211013 59 107 0.0 2.0 0.03 0.00 0.00 73 1012.9
20260505210710 59 108 2.0 3.0 0.03 0.00 0.00 73 1013.0
20260505210406 59 110 1.0 3.0 0.03 0.00 0.00 73 1013.0
20260505210103 59 121 0.0 3.0 0.03 0.00 0.00 73 1013.0
20260505205800 59 144 0.0 3.0 0.03 0.00 0.00 73 1012.8
20260505205456 59 225 0.0 3.0 0.03 0.00 0.00 73 1012.9
20260505205153 59 249 0.0 3.0 0.03 0.00 0.00 73 1012.8
20260505204850 59 257 0.0 1.0 0.03 0.00 0.00 73 1012.9
20260505204546 59 257 0.0 1.0 0.03 0.00 0.00 73 1012.8
20260505204243 59 256 0.0 4.0 0.03 0.00 0.00 72 1012.9
20260505203940 59 256 0.0 4.0 0.03 0.00 0.00 72 1013.0
20260505203636 59 258 2.0 3.0 0.03 0.00 0.00 72 1013.0
20260505203333 59 259 0.0 2.0 0.03 0.00 0.00 71 1013.0
20260505203029 59 261 0.0 2.0 0.03 0.00 0.00 71 1013.1
20260505202726 59 260 0.0 2.0 0.03 0.00 0.00 71 1013.2
20260505202423 59 260 0.0 0.0 0.03 0.00 0.00 71 1013.2
20260505202119 60 258 0.0 2.0 0.03 0.00 0.00 71 1013.4
20260505201816 60 256 0.0 3.0 0.03 0.00 0.00 70 1013.3
20260505201513 60 256 0.0 3.0 0.03 0.00 0.00 70 1013.1
20260505201209 60 254 0.0 4.0 0.03 0.00 0.00 69 1013.3
20260505200906 60 253 0.0 6.0 0.03 0.00 0.00 69 1013.4
20260505200603 60 254 5.0 6.0 0.03 0.00 0.00 69 1013.4
20260505200259 61 254 4.0 9.0 0.03 0.00 0.00 69 1013.0
20260505195956 61 254 0.0 9.0 0.03 0.00 0.00 68 1013.2
20260505195653 61 255 2.0 8.0 0.03 0.00 0.00 68 1013.1
20260505195349 61 255 0.0 8.0 0.03 0.00 0.00 68 1013.1
20260505195046 61 256 0.0 6.0 0.03 0.00 0.00 68 1013.2
20260505194743 61 257 3.0 5.0 0.03 0.00 0.00 68 1013.2
20260505194439 61 258 2.0 5.0 0.03 0.00 0.00 67 1013.1
20260505194136 61 259 0.0 5.0 0.03 0.00 0.00 68 1013.2
20260505193832 61 259 0.0 5.0 0.03 0.00 0.00 67 1013.0
20260505193529 61 259 0.0 8.0 0.03 0.00 0.00 66 1013.1
20260505193226 61 260 1.0 8.0 0.03 0.00 0.00 66 1012.9
20260505192922 62 260 0.0 9.0 0.03 0.00 0.00 66 1013.1
20260505192619 62 260 1.0 10.0 0.03 0.00 0.00 66 1013.0
20260505192316 62 260 2.0 9.0 0.03 0.00 0.00 65 1012.8
20260505192013 62 260 1.0 12.0 0.03 0.00 0.00 65 1012.9
20260505191709 62 259 3.0 13.0 0.03 0.00 0.00 65 1012.8
20260505191406 62 259 7.0 13.0 0.03 0.00 0.00 65 1012.8
20260505191102 62 259 5.0 12.0 0.03 0.00 0.00 64 1012.9
20260505190759 62 259 10.0 12.0 0.03 0.00 0.00 64 1013.0
20260505190455 62 259 8.0 11.0 0.03 0.00 0.00 64 1012.8
20260505190152 62 259 2.0 13.0 0.03 0.00 0.00 64 1012.8
20260505185849 62 259 2.0 13.0 0.03 0.00 0.00 64 1012.8
20260505185545 62 259 0.0 13.0 0.03 0.00 0.00 63 1012.8
20260505185242 62 260 3.0 13.0 0.03 0.00 0.00 63 1012.8
20260505184938 62 261 2.0 9.0 0.03 0.00 0.00 64 1012.8
20260505184635 63 262 0.0 8.0 0.03 0.00 0.00 63 1012.8
20260505184332 63 263 5.0 10.0 0.03 0.00 0.00 62 1012.7
20260505184028 63 263 0.0 13.0 0.03 0.00 0.00 62 1012.9
20260505183725 63 263 4.0 8.0 0.03 0.00 0.00 62 1013.0
20260505183422 63 264 3.0 10.0 0.03 0.00 0.00 62 1013.0
20260505183118 63 265 2.0 14.0 0.03 0.00 0.00 62 1012.8
20260505182815 63 266 7.0 14.0 0.03 0.00 0.00 61 1012.8
20260505182512 63 266 3.0 10.0 0.03 0.00 0.00 61 1012.6
20260505182208 63 266 1.0 11.0 0.03 0.00 0.00 61 1012.5
20260505181905 64 266 9.0 11.0 0.03 0.00 0.00 60 1012.7
20260505181602 64 266 1.0 15.0 0.03 0.00 0.00 60 1012.9
20260505181258 64 266 7.0 15.0 0.03 0.00 0.00 60 1012.8
20260505180955 64 266 2.0 9.0 0.03 0.00 0.00 60 1012.7
20260505180652 64 266 2.0 11.0 0.03 0.00 0.00 60 1012.7
20260505180348 64 266 3.0 11.0 0.03 0.00 0.00 59 1012.5
20260505180045 65 266 7.0 11.0 0.03 0.00 0.00 59 1012.6
20260505175741 65 266 2.0 9.0 0.03 0.00 0.00 59 1012.8
20260505175438 65 266 3.0 11.0 0.03 0.00 0.00 58 1012.7
20260505175135 65 266 1.0 12.0 0.03 0.00 0.00 58 1012.6
20260505174831 66 266 9.0 12.0 0.03 0.00 0.00 57 1012.7
20260505174528 66 266 2.0 6.0 0.03 0.00 0.00 57 1012.8
20260505174225 66 266 3.0 13.0 0.03 0.00 0.00 56 1012.7
20260505173921 67 266 4.0 10.0 0.03 0.00 0.00 56 1012.7
20260505173618 67 266 1.0 10.0 0.03 0.00 0.00 55 1012.8
20260505173315 67 266 3.0 10.0 0.03 0.00 0.00 55 1012.8
20260505173011 67 266 6.0 10.0 0.03 0.00 0.00 55 1012.7
20260505172708 67 266 1.0 10.0 0.03 0.00 0.00 54 1012.8
20260505172405 68 266 1.0 11.0 0.03 0.00 0.00 54 1013.0
20260505172101 68 266 7.0 11.0 0.03 0.00 0.00 53 1012.8
20260505171758 69 266 1.0 11.0 0.03 0.00 0.00 52 1012.9
20260505171455 69 266 7.0 11.0 0.03 0.00 0.00 52 1012.9
20260505171151 70 266 1.0 9.0 0.03 0.00 0.00 51 1012.9
20260505170848 69 266 2.0 10.0 0.03 0.00 0.00 51 1012.9
20260505170545 69 266 5.0 17.0 0.03 0.00 0.00 51 1012.8
20260505170241 69 266 3.0 10.0 0.03 0.00 0.00 51 1013.1
20260505165938 69 266 3.0 14.0 0.03 0.00 0.00 51 1013.0
20260505165634 70 266 5.0 14.0 0.03 0.00 0.00 51 1013.0
20260505165331 69 266 0.0 12.0 0.03 0.00 0.00 51 1012.9
20260505165028 69 266 3.0 10.0 0.03 0.00 0.00 51 1013.1
20260505164724 70 266 4.0 9.0 0.03 0.00 0.00 50 1013.2
20260505164421 70 266 4.0 10.0 0.03 0.00 0.00 50 1012.9
20260505164118 70 266 8.0 10.0 0.03 0.00 0.00 49 1012.7
20260505163814 69 266 0.0 6.0 0.03 0.00 0.00 51 1013.1
20260505163511 69 266 3.0 9.0 0.03 0.00 0.00 51 1012.8
20260505163207 69 266 2.0 12.0 0.03 0.00 0.00 50 1013.1
20260505162904 68 266 1.0 13.0 0.03 0.00 0.00 51 1013.3
20260505162601 67 266 7.0 14.0 0.03 0.00 0.00 52 1013.1
20260505162257 67 266 9.0 19.0 0.03 0.00 0.00 52 1013.2
20260505161954 67 266 2.0 19.0 0.03 0.00 0.00 53 1012.9
20260505161651 67 266 8.0 22.0 0.03 0.00 0.00 52 1013.3
20260505161347 67 266 16.0 22.0 0.03 0.00 0.00 52 1013.4
20260505161044 67 266 6.0 14.0 0.03 0.00 0.00 52 1013.4
20260505160740 67 266 2.0 13.0 0.03 0.00 0.00 52 1013.4
20260505160437 67 266 6.0 18.0 0.03 0.00 0.00 52 1013.4
20260505160134 68 266 11.0 18.0 0.03 0.00 0.00 51 1013.5
20260505153100 69 266 8.0 10.0 0.03 0.00 0.00 50 1013.3
20260505152757 68 266 2.0 14.0 0.03 0.00 0.00 50 1013.4
20260505152454 68 266 6.0 18.0 0.03 0.00 0.00 50 1013.6
20260505152150 69 266 2.0 12.0 0.03 0.00 0.00 49 1013.4
20260505151847 69 266 5.0 10.0 0.03 0.00 0.00 48 1013.6
20260505151543 69 266 7.0 12.0 0.03 0.00 0.00 49 1013.4
20260505151240 69 266 5.0 12.0 0.03 0.00 0.00 48 1013.6
20260505150937 70 266 7.0 12.0 0.03 0.00 0.00 47 1013.4
20260505150633 70 266 5.0 8.0 0.03 0.00 0.00 47 1013.5
20260505150330 70 266 2.0 14.0 0.03 0.00 0.00 47 1013.5
20260505140526 72 266 7.0 14.0 0.03 0.00 0.00 46 1013.4
20260505140222 73 266 4.0 13.0 0.03 0.00 0.00 45 1013.6
20260505130115 76 266 2.0 9.0 0.03 0.00 0.00 42 1013.5
20260505124902 73 266 7.0 19.0 0.03 0.00 0.00 44 1013.9
20260505124558 75 266 7.0 19.0 0.03 0.00 0.00 44 1013.6
20260505124255 76 266 3.0 13.0 0.03 0.00 0.00 43 1013.8
20260505123952 76 266 3.0 9.0 0.03 0.00 0.00 42 1013.6
20260505123648 75 266 0.0 9.0 0.03 0.00 0.00 43 1013.6
20260505123345 75 266 3.0 19.0 0.03 0.00 0.00 43 1013.6
20260505123042 75 266 3.0 19.0 0.03 0.00 0.00 42 1013.8
20260505122738 75 266 4.0 17.0 0.03 0.00 0.00 41 1013.7
20260505122435 76 266 11.0 19.0 0.03 0.00 0.00 41 1013.6
20260505122132 76 266 3.0 19.0 0.03 0.00 0.00 39 1013.6
20260505121828 76 266 3.0 15.0 0.03 0.00 0.00 38 1013.7
20260505121525 77 266 6.0 19.0 0.03 0.00 0.00 38 1013.6
20260505121222 78 266 16.0 19.0 0.03 0.00 0.00 37 1013.5
20260505120918 79 266 3.0 12.0 0.03 0.00 0.00 35 1013.5
20260505120615 78 266 3.0 19.0 0.03 0.00 0.00 35 1013.4
20260505120312 78 266 7.0 15.0 0.03 0.00 0.00 35 1013.4
20260505120008 79 266 9.0 11.0 0.03 0.00 0.00 35 1012.0
20260505115705 79 266 5.0 13.0 0.03 0.00 0.00 33 1011.7
20260505115401 79 266 5.0 13.0 0.03 0.00 0.00 34 1012.0
20260505115058 79 266 3.0 12.0 0.03 0.00 0.00 33 1011.9
20260505114755 79 266 6.0 15.0 0.03 0.00 0.00 34 1011.9
20260505114451 79 266 5.0 15.0 0.03 0.00 0.00 34 1012.1
20260505114148 78 266 2.0 17.0 0.03 0.00 0.00 35 1012.0
20260505113845 79 266 13.0 17.0 0.03 0.00 0.00 34 1012.0
20260505113541 80 266 7.0 15.0 0.03 0.00 0.00 34 1012.2
20260505113238 80 266 4.0 14.0 0.03 0.00 0.00 34 1012.1
20260505112934 80 265 5.0 11.0 0.03 0.00 0.00 33 1012.0
20260505112631 80 263 3.0 15.0 0.03 0.00 0.00 33 1012.0
20260505112328 80 262 2.0 15.0 0.03 0.00 0.00 33 1011.9
20260505112024 81 262 4.0 8.0 0.03 0.00 0.00 32 1012.1
20260505111721 80 262 2.0 6.0 0.03 0.00 0.00 33 1011.9
20260505111418 79 263 2.0 9.0 0.03 0.00 0.00 34 1011.9
20260505111114 78 264 5.0 9.0 0.03 0.00 0.00 34 1012.1
20260505110811 77 266 1.0 15.0 0.03 0.00 0.00 38 1012.2
20260505110508 78 266 11.0 17.0 0.03 0.00 0.00 35 1011.8
20260505110204 78 265 5.0 11.0 0.03 0.00 0.00 34 1012.1
20260505102220 78 261 3.0 8.0 0.03 0.00 0.00 35 1012.5
20260505101917 78 262 3.0 9.0 0.03 0.00 0.00 34 1012.4
20260505101614 78 261 2.0 6.0 0.03 0.00 0.00 34 1012.6
20260505101310 78 260 3.0 5.0 0.03 0.00 0.00 33 1012.6
20260505101007 78 259 3.0 9.0 0.03 0.00 0.00 32 1012.7
20260505100704 79 258 4.0 8.0 0.03 0.00 0.00 31 1012.6
20260505100400 79 256 1.0 8.0 0.03 0.00 0.00 34 1012.7
20260505100057 78 256 1.0 5.0 0.03 0.00 0.00 34 1012.4
20260505095754 78 256 3.0 10.0 0.03 0.00 0.00 34 1012.6
20260505095450 79 253 2.0 9.0 0.03 0.00 0.00 34 1012.8
20260505095147 78 252 0.0 8.0 0.03 0.00 0.00 34 1012.8
20260505094843 78 253 1.0 6.0 0.03 0.00 0.00 31 1012.7
20260505094540 78 252 1.0 8.0 0.03 0.00 0.00 30 1012.7
20260505094237 79 251 3.0 8.0 0.03 0.00 0.00 31 1012.9
20260505093933 78 251 3.0 6.0 0.03 0.00 0.00 34 1012.8
20260505093630 78 249 2.0 6.0 0.03 0.00 0.00 33 1012.9
20260505093327 78 248 5.0 9.0 0.03 0.00 0.00 32 1012.8
20260505093023 77 248 2.0 9.0 0.03 0.00 0.00 30 1012.8
20260505092720 78 248 2.0 4.0 0.03 0.00 0.00 30 1012.8
20260505092417 77 247 2.0 8.0 0.03 0.00 0.00 31 1012.8
20260505092113 76 247 3.0 8.0 0.03 0.00 0.00 31 1013.0
20260505091810 77 247 0.0 5.0 0.03 0.00 0.00 31 1013.0
20260505091507 76 247 3.0 4.0 0.03 0.00 0.00 30 1013.0
20260505091203 76 246 3.0 5.0 0.03 0.00 0.00 32 1013.1
20260505090900 76 244 0.0 5.0 0.03 0.00 0.00 34 1013.1
20260505090557 75 241 1.0 3.0 0.03 0.00 0.00 32 1008.9
20260505090253 75 241 1.0 4.0 0.03 0.00 0.00 32 1008.9